Location: Monrovia
(34.7865°N, 86.7139°W)
Time: 21:54:56
(UTC+00:00)

Cosmos 2058 - Pass Details

Date: 14 July 2020
Orbit: 562 x 584 km, 82.5° (Epoch: 08 August)

Event Time Altitude Azimuth Distance (km) Brightness Sun altitude
Exits shadow 02:33:41 30° 109° (ESE) 1,038 3.7 -16.4°
Maximum altitude 02:34:18 31° 91° (E) 1,002 3.7 -16.5°
Drops below altitude 10° 02:37:58 10° 28° (NNE) 1,873 5.7 -17.1°
Sets 02:40:19 0° 19° (NNE) 2,771 6.7 -17.4°
